Date,TemperatureHighF,TemperatureAvgF,TemperatureLowF,DewpointHighF,DewpointAvgF,DewpointLowF,HumidityHigh,HumidityAvg,HumidityLow,PressureMaxIn,PressureMinIn,WindSpeedMaxMPH,WindSpeedAvgMPH,GustSpeedMaxMPH,PrecipitationSumIn
2013-8-1,75,69,66,69,64,61,97,84,67,29.92,29.76,16,5,30,0.89
2013-8-2,74,67,61,64,62,60,96,85,63,29.89,29.82,7,3,14,0.68
2013-8-3,74,68,62,62,60,54,97,78,50,29.91,29.81,12,5,21,0.64
2013-8-4,70,66,61,60,56,53,89,73,56,30.04,29.91,15,8,25,0.00
2013-8-5,73,65,56,59,55,48,92,71,45,30.10,30.02,8,4,15,0.00
2013-8-6,78,67,56,63,58,53,92,75,44,30.06,29.98,8,4,14,0.00
2013-8-7,81,73,65,69,65,60,87,77,64,29.99,29.86,11,6,25,0.00
2013-8-8,80,74,68,72,69,65,96,85,72,29.95,29.89,8,3,15,0.08
2013-8-9,76,71,67,70,67,61,98,89,61,29.90,29.83,9,3,16,4.96
2013-8-10,70,66,62,62,56,48,90,71,49,30.08,29.90,13,6,20,0.00
2013-8-11,73,65,56,60,57,52,93,74,57,30.12,30.03,7,4,12,0.00
2013-8-12,77,69,62,65,61,58,87,76,55,30.05,29.84,5,3,10,0.00
2013-8-13,73,66,60,67,61,50,97,83,62,29.85,29.73,16,7,30,0.72
2013-8-14,68,61,55,56,52,49,93,73,51,30.07,29.82,15,8,27,0.05
2013-8-15,73,64,53,58,53,50,90,69,48,30.13,30.06,12,5,21,0.00
2013-8-16,75,66,55,59,55,52,91,71,50,30.20,30.10,7,3,11,0.00
2013-8-17,78,68,57,62,58,55,92,73,50,30.29,30.20,8,4,12,0.00
2013-8-18,80,70,60,65,61,57,89,74,48,30.25,30.10,6,3,9,0.00
2013-8-19,80,71,63,67,62,59,90,75,52,30.10,30.01,7,3,12,0.00
2013-8-20,82,73,62,66,62,59,89,71,48,30.11,30.03,9,3,16,0.00
2013-8-21,86,75,64,68,64,61,90,71,49,30.15,30.00,7,3,13,0.00
2013-8-22,84,75,68,72,67,61,88,77,61,30.01,29.87,12,6,24,0.03
2013-8-23,72,67,62,63,59,55,82,75,64,30.20,29.96,8,3,13,0.00
2013-8-24,74,65,55,59,54,47,93,70,41,30.35,30.20,7,3,12,0.00
2013-8-25,82,70,56,62,57,53,91,65,38,30.34,30.11,8,4,15,0.00
2013-8-26,77,71,67,71,67,60,97,88,68,30.13,29.90,11,5,22,3.57
2013-8-27,81,73,68,73,70,68,98,91,77,29.94,29.86,6,2,10,0.00
2013-8-28,80,74,69,72,70,68,96,88,76,29.93,29.83,8,3,12,0.00
2013-8-29,78,73,69,72,70,66,98,90,73,30.04,29.93,6,2,10,0.06
2013-8-30,84,75,64,71,67,63,96,79,51,30.00,29.74,6,3,13,0.01
2013-8-31,78,73,70,73,70,68,96,91,82,29.85,29.70,10,4,15,0.38